Weather in Ezhol

Russia / Komi Republic     61°52′13″N   52°48′57″E
temp.,
°C
wind,
m/s
gust,
m/s
humid.,
%
clouds,
%
prec.,
mm/h
press.,
hPa
HPBL,
m
16 may, sun
sun1600:00+13e3686100 1.4 1012188
03:00+12se249772 1.6 1012112
06:00+16s3888100 0.2 1011351
09:00+22sw58644 0.4 10101055
12:00+25wsw6133812 0.0 10102616
15:00+26wsw5123610 0.0 10093043
18:00+22wsw511450 0.0 10071587
21:00+17sw3117058 0.3 1009303
17 may, mon
mon1700:00+15ssw39820 0.3 1009273
03:00+14sw310880 0.3 1009341
06:00+17sw49755 0.0 1010667
09:00+19wsw695760 0.3 10101624
12:00+18w6106598 1.3 10121451
15:00+18wnw575984 1.8 10131416
18:00+15nnw4880100 0.5 1015867
21:00+12nnw4784100 0.7 1018665
18 may, tue
tue1800:00+10n378630 0.0 1020466
03:00+7nne27910 0.0 1022247
06:00+10nne24590 0.0 1023455
09:00+15nne22400 0.0 1024909
12:00+19nne2232100 0.0 10231213
15:00+20ene1130100 0.0 10231357
18:00+19se114056 0.0 102317
21:00+13se22518 0.0 102313
19 may, wed
wed1900:00+11sse256092 0.0 102375
03:00+11s2667100 0.0 1023100
06:00+15s365366 0.0 1023252
09:00+20ssw354595 0.0 1022685
12:00+24ssw453492 0.0 10201508
15:00+25sw463231 0.0 10191549
18:00+23sw37415 0.0 1018461
21:00+17ssw386316 0.0 1018138
20 may, thu
thu2000:00+15ssw310687 0.0 1018163
03:00+15sw3117095 0.0 1018230
06:00+19sw375521 0.0 1018307
09:00+24sw34381 0.0 1017951
12:00+27sw45280 0.0 10161789
15:00+27sw45240 0.0 10152109
18:00+25sw25370 0.0 1014181
21:00+18ssw38570 0.0 1014118